Time,TemperatureF,DewpointF,PressureIn,WindDirection,WindDirectionDegrees,WindSpeedMPH,WindSpeedGustMPH,Humidity,HourlyPrecipIn,Conditions,Clouds,dailyrainin,SoftwareType,DateUTC
2013-08-24 00:01:00,74.9,65.3,29.92,North,0,0.0,0.0,72,0.00,,,0.00,Wunderground v.1.15,2013-08-24 05:01:00,
2013-08-24 00:30:00,74.2,65.0,29.92,NW,309,0.0,0.0,73,0.00,,,0.00,Wunderground v.1.15,2013-08-24 05:30:00,
2013-08-24 01:00:00,73.7,64.5,29.92,NW,325,0.0,0.0,73,0.00,,,0.00,Wunderground v.1.15,2013-08-24 06:00:00,
2013-08-24 01:30:00,73.0,64.2,29.92,WNW,299,0.0,0.0,74,0.00,,,0.00,Wunderground v.1.15,2013-08-24 06:30:00,
2013-08-24 02:00:00,72.5,64.1,29.92,NW,319,0.0,0.0,75,0.00,,,0.00,Wunderground v.1.15,2013-08-24 07:00:00,
2013-08-24 02:30:00,72.1,63.7,29.92,NNW,335,0.0,0.0,75,0.00,,,0.00,Wunderground v.1.15,2013-08-24 07:30:00,
2013-08-24 03:00:00,72.0,64.0,29.92,NW,316,0.0,0.0,76,0.00,,,0.00,Wunderground v.1.15,2013-08-24 08:00:00,
2013-08-24 03:30:00,71.8,64.2,29.92,NW,326,0.0,0.0,77,0.00,,,0.00,Wunderground v.1.15,2013-08-24 08:30:00,
2013-08-24 04:00:00,71.6,64.0,29.93,NW,326,0.0,0.0,77,0.00,,,0.00,Wunderground v.1.15,2013-08-24 09:00:00,
2013-08-24 04:30:00,71.5,63.9,29.93,NNW,333,0.0,0.0,77,0.00,,,0.00,Wunderground v.1.15,2013-08-24 09:30:00,
2013-08-24 05:00:00,71.3,63.7,29.93,North,352,0.0,0.0,77,0.00,,,0.00,Wunderground v.1.15,2013-08-24 10:00:00,
2013-08-24 05:30:00,70.9,63.7,29.93,NNW,341,0.0,0.0,78,0.00,,,0.00,Wunderground v.1.15,2013-08-24 10:30:00,
2013-08-24 06:00:00,70.6,63.4,29.93,WNW,302,0.0,0.0,78,0.00,,,0.00,Wunderground v.1.15,2013-08-24 11:00:00,
2013-08-24 06:30:00,70.6,63.8,29.94,WNW,287,0.0,0.0,79,0.00,,,0.00,Wunderground v.1.15,2013-08-24 11:30:00,
2013-08-24 07:00:00,70.8,64.0,29.94,WNW,301,0.0,0.0,79,0.00,,,0.00,Wunderground v.1.15,2013-08-24 12:00:00,
2013-08-24 07:30:00,71.1,64.6,29.94,NW,304,0.0,0.0,80,0.00,,,0.00,Wunderground v.1.15,2013-08-24 12:30:00,
2013-08-24 08:00:00,71.8,65.3,29.94,ENE,63,0.0,0.0,80,0.00,,,0.00,Wunderground v.1.15,2013-08-24 13:00:00,
2013-08-24 08:30:00,73.3,65.7,29.93,NNW,330,0.0,0.0,77,0.00,,,0.00,Wunderground v.1.15,2013-08-24 13:30:00,
2013-08-24 09:00:00,74.6,66.1,29.93,NW,311,0.0,0.0,75,0.00,,,0.00,Wunderground v.1.15,2013-08-24 14:00:00,
2013-08-24 09:30:00,76.8,66.7,29.93,WNW,291,0.0,0.0,71,0.00,,,0.00,Wunderground v.1.15,2013-08-24 14:30:00,
2013-08-24 10:00:00,78.6,68.0,29.92,NNW,344,0.0,0.0,70,0.00,,,0.00,Wunderground v.1.15,2013-08-24 15:00:00,
2013-08-24 10:30:00,79.0,67.5,29.92,East,91,0.0,0.0,68,0.00,,,0.00,Wunderground v.1.15,2013-08-24 15:30:00,
2013-08-24 11:00:00,83.8,68.9,29.90,NNW,343,0.0,0.0,61,0.00,,,0.00,Wunderground v.1.15,2013-08-24 16:00:00,
2013-08-24 11:30:00,85.3,69.3,29.89,NE,35,0.0,0.0,59,0.00,,,0.00,Wunderground v.1.15,2013-08-24 16:30:00,
2013-08-24 12:00:00,86.7,68.6,29.87,NNW,328,0.0,0.0,55,0.00,,,0.00,Wunderground v.1.15,2013-08-24 17:00:00,
2013-08-24 12:30:00,88.2,70.5,29.86,WNW,287,0.0,0.0,56,0.00,,,0.00,Wunderground v.1.15,2013-08-24 17:30:00,
2013-08-24 13:00:00,85.7,69.7,29.86,NNE,28,0.0,0.0,59,0.00,,,0.00,Wunderground v.1.15,2013-08-24 18:00:00,
2013-08-24 13:30:00,87.2,70.1,29.87,NNW,328,0.0,0.0,57,0.00,,,0.00,Wunderground v.1.15,2013-08-24 18:30:00,
2013-08-24 14:00:00,87.4,69.8,29.86,NE,49,0.0,0.0,56,0.00,,,0.00,Wunderground v.1.15,2013-08-24 19:00:00,
2013-08-24 14:30:00,88.4,69.6,29.85,SSE,165,0.0,0.0,54,0.00,,,0.00,Wunderground v.1.15,2013-08-24 19:30:00,
2013-08-24 15:00:00,88.0,69.3,29.85,NE,54,0.0,0.0,54,0.00,,,0.00,Wunderground v.1.15,2013-08-24 20:00:00,
2013-08-24 15:31:00,89.9,70.5,29.84,WNW,295,0.0,0.0,53,0.00,,,0.00,Wunderground v.1.15,2013-08-24 20:31:00,
2013-08-24 16:01:00,89.0,69.1,29.83,ENE,68,0.0,0.0,52,0.00,,,0.00,Wunderground v.1.15,2013-08-24 21:01:00,
2013-08-24 16:30:00,88.4,69.6,29.83,WNW,302,0.0,0.0,54,0.00,,,0.00,Wunderground v.1.15,2013-08-24 21:30:00,
2013-08-24 17:00:00,87.2,69.6,29.83,North,1,0.0,0.0,56,0.00,,,0.00,Wunderground v.1.15,2013-08-24 22:00:00,
2013-08-24 17:31:00,85.5,68.0,29.83,North,359,0.0,0.0,56,0.00,,,0.00,Wunderground v.1.15,2013-08-24 22:31:00,
2013-08-24 18:01:00,85.1,69.2,29.82,WNW,297,0.0,0.0,59,0.00,,,0.00,Wunderground v.1.15,2013-08-24 23:01:00,
2013-08-24 18:30:00,83.4,69.5,29.81,NW,309,0.0,0.0,63,0.00,,,0.00,Wunderground v.1.15,2013-08-24 23:30:00,
2013-08-24 19:00:00,83.2,69.3,29.81,East,96,0.0,0.0,63,0.00,,,0.00,Wunderground v.1.15,2013-08-25 00:00:00,
2013-08-24 19:30:00,83.2,69.3,29.81,North,1,0.0,0.0,63,0.00,,,0.00,Wunderground v.1.15,2013-08-25 00:30:00,
2013-08-24 20:00:00,83.2,69.8,29.81,North,0,0.0,0.0,64,0.00,,,0.00,Wunderground v.1.15,2013-08-25 01:00:00,
2013-08-24 20:30:00,83.0,69.6,29.80,North,359,0.0,0.0,64,0.00,,,0.00,Wunderground v.1.15,2013-08-25 01:30:00,
2013-08-24 21:00:00,82.6,70.1,29.81,North,0,0.0,0.0,66,0.00,,,0.00,Wunderground v.1.15,2013-08-25 02:00:00,
2013-08-24 21:31:00,82.2,70.1,29.81,SSW,203,0.0,0.0,67,0.00,,,0.00,Wunderground v.1.15,2013-08-25 02:31:00,
2013-08-24 22:01:00,81.6,70.0,29.81,NNW,337,0.0,0.0,68,0.00,,,0.00,Wunderground v.1.15,2013-08-25 03:01:00,
2013-08-24 22:30:00,81.2,70.1,29.81,NNW,330,0.0,0.0,69,0.00,,,0.00,Wunderground v.1.15,2013-08-25 03:30:00,
2013-08-24 23:00:00,81.1,70.0,29.81,WSW,250,0.0,0.0,69,0.00,,,0.00,Wunderground v.1.15,2013-08-25 04:00:00,
2013-08-24 23:30:00,80.7,70.0,29.81,ENE,69,0.0,0.0,70,0.00,,,0.00,Wunderground v.1.15,2013-08-25 04:30:00,